Location: Perryvale
(54.4667°N, 113.3833°W)
Time: 19:17:42
(UTC+00:00)

Transit 2A - Pass Details

Date: 27 May 2024
Orbit: 592 x 959 km, 66.7° (Epoch: 19 June)

Event Time Altitude Azimuth Distance (km) Brightness Sun altitude
Rises 05:15:00 0° 203° (SSW) 2,960 8.7 -8.8°
Reaches altitude 10° 05:17:14 10° 198° (SSW) 2,097 7.9 -8.9°
Maximum altitude 05:21:51 53° 122° (ESE) 883 6.0 -9.3°
Drops below altitude 10° 05:27:00 10° 47° (NE) 2,338 8.7 -9.6°
Sets 05:29:36 0° 43° (NE) 3,334 9.6 -9.8°
